Weather History for Sioux Falls, SD

Change the Weather History Date:

Tuesday, December 25, 2012

  Actual Average Record
Temperature  
Mean Temperature 2 °F 17 °F  
Max Temperature 8 °F 26 °F 50 °F (1959)
Min Temperature -5 °F 8 °F -21 °F (1990)
Degree Days  
Heating Degree Days 63 48  
Month to date heating degree days 1009 1131  
Since 1 July heating degree days 2612 2843  
Cooling Degree Days 0 0  
Month to date cooling degree days 0 0  
Year to date cooling degree days 1182 690  
Moisture  
Dew Point -4 °F    
Average Humidity 81    
Maximum Humidity 87    
Minimum Humidity 75    
Precipitation  
Precipitation 0.00 in 0.02 in 1.13 in (1945)
Month to date precipitation 1.05 0.58  
Year to date precipitation 17.08 26.27  
Snow  
Snow 0.00 in 0.30 in 10.50 in (2009)
Month to date snowfall 7.6 6.8  
Since 1 July snowfall 8.7 15.5  
Snow Depth 2.00 in    
Sea Level Pressure  
Sea Level Pressure 30.53 in    
Wind  
Wind Speed 5 mph (NNW)    
Max Wind Speed 12 mph    
Max Gust Speed 14 mph    
Visibility 10 miles    
Events      
T = Trace of Precipitation, MM = Missing Value Source: NWS Daily Summary

Daily Weather History Graph

Daily Weather History Graph

Search for Another Location

Airport:

Trip Planner

Search our weather history database for the weather conditions in past years. The results will help you decide how hot, cold, wet, or windy it might be!

Date:

Astronomy

Dec. 25, 2012 Rise Set
Actual Time 7:58 AM CST 4:55 PM CST
Civil Twilight 7:26 AM CST 5:28 PM CST
Nautical Twilight 6:49 AM CST 6:04 PM CST
Astronomical Twilight 6:15 AM CST 6:39 PM CST
Moon 3:06 PM CST (12/25) 5:30 AM CST (12/25)
Length of Visible Light 10h 02m
Length of Day
8h 56m
Waxing Gibbous, 94% of the Moon is Illuminated
Dec 25
Waxing Gibbous
Dec 28
Full
Jan 4
Last Quarter
Jan 11
New
Jan 18
First Quarter

Hourly Weather History & Observations

Time (CST) Temp. Windchill Dew Point Humidity Pressure Visibility Wind Dir Wind Speed Gust Speed Precip Events Conditions
12:56 AM -2.9 °F -15.0 °F -8.0 °F 79% 30.44 in 10.0 mi North 5.8 mph - N/A   Clear
1:56 AM -4.0 °F -12.4 °F -8.0 °F 83% 30.46 in 10.0 mi NW 3.5 mph - N/A   Clear
2:56 AM -5.1 °F -15.8 °F -9.0 °F 83% 30.48 in 10.0 mi North 4.6 mph - N/A   Clear
3:56 AM -4.0 °F -17.8 °F -9.0 °F 79% 30.47 in 10.0 mi North 6.9 mph - N/A   Clear
4:56 AM -4.0 °F -12.4 °F -8.0 °F 83% 30.48 in 10.0 mi NNW 3.5 mph - N/A   Clear
5:56 AM -4.0 °F -16.3 °F -8.0 °F 83% 30.51 in 10.0 mi North 5.8 mph - N/A   Clear
6:56 AM -4.0 °F -16.3 °F -9.0 °F 79% 30.53 in 10.0 mi North 5.8 mph - N/A   Clear
7:56 AM -4.0 °F -16.3 °F -9.0 °F 79% 30.56 in 10.0 mi NNW 5.8 mph - N/A   Clear
8:56 AM -2.9 °F -13.3 °F -8.0 °F 79% 30.58 in 10.0 mi North 4.6 mph - N/A   Clear
9:56 AM -0.0 °F -11.6 °F -6.0 °F 76% 30.60 in 10.0 mi North 5.8 mph - N/A   Clear
10:56 AM 1.0 °F -8.7 °F -5.1 °F 75% 30.61 in 10.0 mi NNW 4.6 mph - N/A   Clear
11:56 AM 3.9 °F -5.3 °F -2.9 °F 73% 30.61 in 10.0 mi NNW 4.6 mph - N/A   Clear
12:56 PM 5.0 °F -5.6 °F -2.0 °F 73% 30.57 in 10.0 mi NNW 5.8 mph - N/A   Clear
1:56 PM 6.1 °F -7.8 °F -0.9 °F 73% 30.53 in 10.0 mi NNW 9.2 mph - N/A   Clear
2:56 PM 7.0 °F -5.7 °F -0.0 °F 73% 30.53 in 10.0 mi NNW 8.1 mph - N/A   Clear
3:56 PM 7.0 °F -3.3 °F -0.0 °F 73% 30.54 in 10.0 mi NNW 5.8 mph - N/A   Clear
4:56 PM 6.1 °F -0.9 °F -0.0 °F 76% 30.57 in 10.0 mi NW 3.5 mph - N/A   Clear
5:56 PM 7.0 °F - 1.0 °F 77% 30.57 in 10.0 mi Calm Calm - N/A   Clear
6:56 PM 7.0 °F 0.1 °F 1.0 °F 77% 30.56 in 10.0 mi NNW 3.5 mph - N/A   Overcast
7:56 PM 5.0 °F -4.1 °F 1.4 °F 85% 30.42 in 10.0 mi North 4.6 mph - N/A   Mostly Cloudy
8:56 PM 5.0 °F -2.1 °F -0.0 °F 80% 30.51 in 10.0 mi North 3.5 mph - N/A   Mostly Cloudy
9:56 PM 5.0 °F -2.1 °F -0.0 °F 80% 30.48 in 10.0 mi North 3.5 mph - N/A   Mostly Cloudy
10:56 PM 3.9 °F -3.4 °F -0.0 °F 84% 30.47 in 10.0 mi North 3.5 mph - N/A   Mostly Cloudy
11:56 PM 3.0 °F - -0.9 °F 84% 30.47 in 10.0 mi Calm Calm - N/A   Partly Cloudy